Regional Weather Roundup
Issued by NWS

Home | Current Version | Previous Version | Graphics & Text | Print | Product List | Glossary Off
Versions: 1 2 3 4 5 6 7 8 9 10 11 12 13 14 15 16 17 18 19 20 21 22 23 24 25 26 27 28 29 30 31 32 33 34 35 36 37 38 39 40 41 42 43 44 45 46 47 48 49 50

000
ASUS43 KMPX 171910
RWRMN
WEATHER ROUNDUP FOR MINNESOTA
NATIONAL WEATHER SERVICE TWIN CITIES/CHANHASSEN MN
100 PM CST SUN DEC 17 2017


NOTE: "FAIR" INDICATES FEW OR NO CLOUDS BELOW 12,000 FEET WITH NO
SIGNIFICANT WEATHER AND/OR OBSTRUCTIONS TO VISIBILITY. N/A MEANS
CURRENT SKY AND/OR WEATHER CONDITIONS ARE NOT AVAILABLE.

MNZ060>063-068>070-172000-
   Twin Cities Metro

CITY           SKY/WX    TMP DP  RH WIND       PRES   REMARKS
TWIN CITIES    CLOUDY    27  25  92 CALM      30.04F FOG
ST PAUL        CLOUDY    27  24  89 S5        30.06F FOG     WCI  22
CRYSTAL        CLOUDY    25  20  81 CALM      30.03F HAZE
BLAINE         CLOUDY    27  27 100 CALM      30.03F FOG
LAKEVILLE        N/A     25  25 100 CALM      30.03F FOG
EDEN PRAIRIE   CLOUDY    27  23  85 CALM      30.02F FOG
SOUTH ST PAUL  CLOUDY    27  25  91 CALM      30.04F FOG
LAKE ELMO      CLOUDY    28  27  93 CALM      30.04F FOG
$$
MNZ001>005-007-008-013>017-022>024-027-028-172000-
   Northwest Minnesota

CITY           SKY/WX    TMP DP  RH WIND       PRES   REMARKS
BEMIDJI        SUNNY     32  27  80 SW3       29.93F
HALLOCK        SUNNY     19  18  93 S9        29.91F WCI   9
ROSEAU         SUNNY     23  18  80 SW8       29.91F WCI  14
CROOKSTON      SUNNY     21  19  93 S3        29.95F
FOSSTON        FOG       27  25  93 SW8       29.95F VSB 1/4 WCI  18
DETROIT LAKES  CLOUDY    30  30 100 S7        29.98F FOG     WCI  23
MOORHEAD       CLOUDY    28  27  93 S7        30.00F FOG     WCI  21
PARK RAPIDS    CLOUDY    27  25  92 SW7       29.96F WCI  19
MAHNOMEN       CLOUDY    29  28  98 SW12      29.96F FOG     WCI  19
$$
MNZ006-009>011-018-025>026-172000-
   North Central Minnesota

CITY           SKY/WX    TMP DP  RH WIND       PRES   REMARKS
BAUDETTE       SUNNY     28  25  88 SW8       29.89F WCI  20
FLAG ISLAND    SUNNY     23  21  93 SW5       29.87F WCI  17
INTL FALLS     CLOUDY    28  24  85 SW8       29.92F FOG     WCI  20
WASKISH        CLOUDY    27  25  93 SW9       29.93F WCI  17
BIG FORK       CLOUDY    27  25  93 S6        29.94F FOG     WCI  20
LONGVILLE      CLOUDY    27  25  93 S5        29.98F FOG     WCI  21
GRAND RAPIDS   CLOUDY    24  23  96 S6        29.99F FOG     WCI  17
CRANE LAKE     CLOUDY    25  21  86 S7        29.95F WCI  17
ORR            CLOUDY    25  21  86 S6        29.92F WCI  18
COOK           CLOUDY    25  21  86 SW7       29.96F WCI  17
WALKER         CLOUDY    27  24  89 S6        29.96F WCI  20
$$
MNZ012-019>021-037-172000-
   Northeast Minnesota

CITY           SKY/WX    TMP DP  RH WIND       PRES   REMARKS
DULUTH         CLOUDY    23  20  88 SW8       29.98F WCI  14
ELY            CLOUDY    21  19  93 S8        29.95F WCI  12
HIBBING        CLOUDY    22  20  92 S7        29.97F FOG     WCI  13
EVELETH        CLOUDY    22  19  88 SW7       29.99F WCI  14
DULUTH HARBOR  CLOUDY    27  21  80 SW7       30.04F WCI  19
TWO HARBORS    CLOUDY    30  23  74 SW6       29.98F WCI  24
SILVER BAY     CLOUDY    27  23  86 SW6       29.98F WCI  20
GRAND MARAIS     N/A     29  25  85 W8        30.01F WCI  21
G MARAIS ARPRT CLOUDY    21  19  93 SW5       29.95F FOG     WCI  15
$$
MNZ029>031-032-039>041-046>048-054>057-064-172000-
   West Central Minnesota

CITY           SKY/WX    TMP DP  RH WIND       PRES   REMARKS
FERGUS FALLS   CLOUDY    30  30 100 S6        30.02F FOG     WCI  24
WHEATON        CLOUDY    30  28  93 SE3       30.02F FOG
MORRIS         CLOUDY    30  28  93 S7        29.99F FOG     WCI  23
ALEXANDRIA     CLOUDY    29  27  92 S6        30.00F FOG     WCI  23
ELBOW LAKE     CLOUDY    29  29 100 S6        30.00F FOG     WCI  23
WADENA         CLOUDY    28  27  93 CALM      29.98F FOG
GLENWOOD       CLOUDY    27  27 100 SW3       30.00F FOG
APPLETON       CLOUDY    30  27  86 CALM      30.02F FOG
BENSON         CLOUDY    28  27  93 CALM      30.03F FOG
ORTONVILLE     CLOUDY    30  28  93 SE6       29.99F FOG     WCI  24
MADISON        PTSUNNY   34  30  86 SE3       30.01F FOG
WILLMAR        CLOUDY    28  27  93 CALM      30.03F FOG
$$
MNZ033>034-036-042>043-049>051-058-059-172000-
   Central Minnesota

CITY           SKY/WX    TMP DP  RH WIND       PRES   REMARKS
ST CLOUD       CLOUDY    25  21  85 W3        30.02F
SAUK CENTRE    CLOUDY    25  24  98 CALM      30.01F
PAYNESVILLE    MOSUNNY   27  24  86 CALM      30.03F
AITKIN         CLOUDY    23  21  93 CALM      29.99F
PINE RIVER     CLOUDY    25  23  93 CALM      30.02F FOG
BRAINERD       CLOUDY    25  22  88 W6        30.00F FOG     WCI  18
STAPLES        CLOUDY    27  27 100 CALM      29.99F FOG
LONG PRAIRIE   CLOUDY    27  25  93 SE3       30.00F FOG
LITTLE FALLS   CLOUDY    27  18  69 CALM      30.01F
LITCHFIELD     CLOUDY    27  21  80 CALM      30.02F
BUFFALO        CLOUDY    25  20  81 CALM      30.04F
MAPLE LAKE     CLOUDY    27  23  84 CALM      30.03F
HUTCHINSON     PTSUNNY   28  22  79 CALM      30.03F
$$
MNZ037-044-045-052-053-172000-
   East Central Minnesota

CITY           SKY/WX    TMP DP  RH WIND       PRES   REMARKS
PRINCETON      CLOUDY    27  21  80 CALM      30.02F
MORA           CLOUDY    27  21  80 CALM      30.03F
CAMBRIDGE      MOSUNNY   27  21  80 CALM      30.03F
RUSH CITY      CLOUDY    24  21  89 CALM      30.03F FOG
MOOSE LAKE     CLOUDY    27  19  74 S3        30.00F
HINCKLEY       FAIR      27  21  80 S3        30.01F
CLOQUET        CLOUDY    25  19  80 S3        29.99F
MCGREGOR       CLOUDY    27  23  86 S5        30.00F WCI  21
$$
MNZ071>073-080-081-089-090-097-098-172000-
   Southwest Minnesota

CITY           SKY/WX    TMP DP  RH WIND       PRES   REMARKS
MONTEVIDEO     CLOUDY    30  28  93 CALM      30.02F FOG
GRANITE FALLS  CLOUDY    30  26  84 CALM      30.04F FOG
CANBY          PTSUNNY   34  31  88 CALM      30.02F FOG
MARSHALL       CLOUDY    32  27  81 W3        30.02F
REDWOOD FALLS  CLOUDY    30  23  75 CALM      30.02F
OLIVIA         MOSUNNY   30  25  80 W3        30.01F HAZE
PIPESTONE      MOSUNNY   32  28  86 CALM      29.98F
WINDOM           N/A     30  18  59 CALM      30.00F HAZE
WORTHINGTON    CLOUDY    28  27  96 N7        30.00F FOG     WCI  21
JACKSON        CLOUDY    32  23  69 VRB6      30.00F WCI  26
TRACY          CLOUDY    32  28  86 W5        30.01F FOG     WCI  27
SLAYTON        CLOUDY    29  29  99 NW5       30.01F FOG     WCI  24
$$
MNZ065>067-074>077-082>085-091>093-172000-
   South Central Minnesota

CITY           SKY/WX    TMP DP  RH WIND       PRES   REMARKS
MANKATO        CLOUDY    25  22  88 CALM      30.04F FOG
NEW ULM        PTSUNNY   28  21  74 CALM      30.02F
ST JAMES       CLOUDY    28  23  80 N3        30.03F
FAIRMONT       FLURRIES  31  24  75 N6        30.02F WCI  25
GLENCOE        PTSUNNY   28  26  90 CALM      30.02F
FARIBAULT      CLOUDY    27  25  93 CALM      30.03F FOG
OWATONNA       CLOUDY    27  25  93 CALM      30.02F FOG
WASECA         CLOUDY    27  25  93 CALM      30.03F FOG
ALBERT LEA     CLOUDY    27  27 100 CALM      30.02S FOG
$$
MNZ078>079-086>088-094>096-172000-
   Southeast Minnesota

CITY           SKY/WX    TMP DP  RH WIND       PRES   REMARKS
ROCHESTER      FOG       28  27  96 CALM      30.01F VSB 3/4
RED WING       CLOUDY    27  25  93 CALM      30.04S FOG
STANTON        CLOUDY    28  25  89 CALM      30.03S FOG
DODGE CENTER   CLOUDY    27  27 100 CALM      30.01F FOG
WINONA         CLOUDY    30  28  93 CALM      30.04F
AUSTIN         CLOUDY    28  27  93 CALM      30.00F FOG
PRESTON        CLOUDY    28  26  96 CALM      30.01S FOG
$$
ABBREVIATIONS USED IN REMARKS
   TC - TEMPERATURES IN CELSIUS
  WCI - WIND CHILL INDEX
   HX - HEAT INDEX
  VSB - VISIBILITY
$$




USA.gov is the U.S. government's official web portal to all federal, state and local government web resources and services.